SCP
0 0 0 0 0 0 0 0 0 0 0 0 0 0 0 0 0 0 0 0 0 0 0 0 0 0 0 0 0 1 1 0 0 0 0 0 0 0 0 0 0 0 0 0
0 0 0 0 0 0 0 0 0 0 0 0 0 0 0 0 0 0 0 0 0 0 0 0 0 0 0 0 0 0 0 0 0 0 0 0 0 0 0 0 0 0 0 0
0 0 0 0 0 0 0 0 0 0 0 0 0 0 0 0 0 0 0 0 0 0 0 0 0 0 0 0 0 0 0 0 0 0 0 0 0 0 0 0 0 0 0 0
0 0 0 0 0 0 0 0 0 0 0 0 0 0 0 0 0 0 0 0 0 0 0 0 0 0 0 0 0 0 0 0 0 0 0 0 0 0 0 0 0 0 0 0
0 0 0 0 0 0 0 0 0 0 0 0 0 0 0 0 0 0 0 0 0 0 0 0 0 0 0 0 0 0 0 0 0 0 0 0 0 0 0 0 0 0 0 0
0 0 0 0 0 0 0 0 0 0 0 0 0 0 0 0 0 0 0 0 0 0 0 0 0 0 0 0 0 0 0 0 0 0 0 0 0 0 0 0 0 0 0 0
0 0 0 0 0 0 0 0 0 0 0 0 0 0 0 0 0 0 0 0 0 0 0 0 0 0 0 0 0 0 0 0 0 0 0 0 0 0 0 0 0 0 0 0
0 0 0 0 0 0 0 0 0 0 0 0 0 0 0 0 0 0 0 0 0 0 0 0 0 0 0 0 0 0 0 0 0 0 0 0 0 0 0 0 0 0 0 0
0 0 0 0 0 0 0 0 0 0 0 0 0 0 0 0 0 0 0 0 0 0 0 0 0 0 0 0 0 0 0 0 0 0 0 0 0 0 0 0 0 0 0 0
0 0 0 0 0 0 0 0 0 0 0 0 0 0 0 0 0 0 0 0 0 0 0 0 0 0 0 0 0 0 0 0 0 0 0 0 0 0 0 0 0 0 0 0
0 0 0 0 0 0 0 0 0 0 0 0 0 0 0 0 0 0 0 0 0 0 0 0 0 0 0 0 0 0 0 0 0 0 0 0 0 0 0 0 0 0 0 0
0 0 0 0 0 0 0 0 0 0 0 0 0 0 0 0 0 0 0 0 0 0 0 0 0 0 0 0 0 0 0 0 0 0 0 0 0 0 0 0 0 0 0 0
0 0 0 0 0 0 0 0 0 0 0 0 0 0 0 0 0 0 0 0 0 0 0 0 0 0 0 0 0 0 0 0 0 0 0 0 0 0 0 0 0 0 0 0
0 0 0 0 0 0 0 0 0 0 0 0 0 0 0 0 0 0 0 0 0 0 0 0 0 0 0 0 0 0 0 0 0 0 0 0 0 0 0 0 0 0 0 0
0 0 0 0 0 0 0 0 0 0 0 0 0 0 0 0 0 0 0 0 0 0 0 0 0 0 0 0 0 0 0 0 0 0 0 0 0 0 0 0 0 0 0 0
0 0 0 0 0 0 0 0 0 0 0 0 0 0 0 0 0 0 0 0 0 0 0 0 0 0 0 0 0 0 0 0 0 0 0 0 0 0 0 0 0 0 0 0
0 0 0 0 0 0 0 0 0 0 0 0 0 0 0 0 0 0 0 0 0 0 0 0 0 0 0 0 0 0 0 0 0 0 0 0 0 0 0 0 0 0 0 0
0 0 0 0 0 0 0 0 0 0 0 0 0 0 0 0 0 0 0 0 0 0 0 0 0 0 0 0 0 0 0 0 0 0 0 0 0 0 0 0 0 0 0 0
0 0 0 0 0 0 0 0 0 0 0 0 0 0 0 0 0 0 0 0 0 0 0 0 0 0 0 0 0 0 0 0 0 0 0 0 0 0 0 0 0 0 0 0
0 0 0 0 0 0 0 0 0 0 0 0 0 0 0 0 0 0 0 0 0 0 0 0 0 0 0 0 0 0 0 0 0 0 0 0 0 0 0 0 0 0 0 0
0 0 0 0 0 0 0 0 0 0 0 0 0 0 0 0 0 0 0 0 0 0 0 0 0 0 0 0 0 0 0 0 0 0 0 0 0 0 0 0 0 0 0 0
0 0 0 0 0 0 0 0 0 0 0 0 0 0 0 0 0 0 0 0 0 0 0 0 0 0 0 0 0 0 0 0 0 0 0 0 0 0 0 0 0 0 0 0
0 0 0 0 0 0 0 0 0 0 0 0 0 0 0 0 0 0 0 0 0 0 0 0 0 0 0 0 0 0 0 0 0 0 0 0 0 0 0 0 0 0 0 0
0 0 0 0 0 0 0 0 0 0 0 0 0 0 0 0 0 0 0 0 0 0 0 0 0 0 0 0 0 0 0 0 0 0 0 0 0 0 0 0 0 0 0 0
0 0 0 0 0 0 0 0 0 0 0 0 0 0 0 0 0 0 0 0 0 0 0 0 0 0 0 0 0 0 0 0 0 0 0 0 0 0 0 0 0 0 0 0
0 0 0 0 0 0 0 0 0 0 0 0 0 0 0 0 0 0 0 0 0 0 0 0 0 0 0 0 0 0 0 0 0 0 0 0 0 0 0 0 0 0 0 0
0 0 0 0 0 0 0 0 0 0 0 0 0 0 0 0 0 0 0 0 0 0 0 0 0 0 0 0 0 0 0 0 0 0 0 0 0 0 0 0 0 0 0 0
Wind_Speed
6 6 5 6 7 7 8 8 7 8 8 8 5 3 3 2 1 1 2 2 2 2 2 2 2 2 2 1 2 1 1 1 1 1 1 2 2 2 2 2 2 2 2 1
5 6 6 7 8 9 9 9 11 10 11 7 4 3 3 2 1 1 1 2 2 2 2 2 2 2 2 1 1 1 1 1 1 1 1 2 2 2 2 1 1 2 2 2
4 3 4 7 8 9 7 7 7 11 10 5 5 5 4 2 1 1 1 2 2 2 2 2 2 1 1 1 1 1 0 0 0 1 1 1 1 1 2 2 1 1 2 2
2 2 6 6 2 3 5 6 6 7 6 4 4 4 2 1 0 1 1 1 2 2 2 2 2 1 1 1 0 0 0 0 0 0 1 1 1 1 1 1 1 1 1 1
2 4 7 4 1 1 2 5 3 5 6 5 3 3 2 1 1 1 1 1 1 2 2 2 1 1 0 0 0 0 1 1 1 1 1 1 1 1 1 1 1 1 1 1
3 4 6 3 0 1 1 5 3 3 4 4 4 3 4 2 2 2 1 1 1 1 2 2 2 1 0 1 1 1 1 1 1 1 2 2 1 1 1 1 1 1 1 1
5 5 7 2 0 2 2 5 3 2 3 2 3 4 4 2 2 2 1 1 1 1 1 2 2 1 1 1 1 1 1 1 1 1 2 2 2 1 1 1 1 2 2 2
4 6 8 1 2 3 5 2 2 2 2 3 4 3 3 3 2 2 1 1 1 1 2 2 2 1 1 2 2 1 1 1 1 1 2 1 1 1 1 2 2 2 2 2
6 7 3 3 3 3 1 2 3 2 3 3 3 4 3 3 2 2 2 1 1 2 2 3 2 1 1 2 1 1 1 2 2 2 2 2 2 2 2 2 2 2 2 2
5 6 4 3 3 2 2 2 3 3 3 2 3 4 3 3 2 2 2 1 1 1 2 3 2 1 2 2 1 1 1 2 2 2 2 2 2 2 2 2 2 2 2 2
6 6 5 5 5 3 3 2 2 3 3 3 3 3 3 3 2 2 2 1 1 2 2 3 2 2 2 1 1 1 1 2 2 2 2 2 2 2 2 3 3 3 2 2
7 5 4 5 3 3 3 4 3 3 3 3 2 3 3 3 2 2 2 2 2 2 2 2 2 2 2 1 1 2 2 2 2 2 2 2 2 1 3 4 4 5 5 4
6 4 4 4 4 3 3 4 3 3 3 3 3 3 3 3 2 2 2 2 2 2 2 2 2 2 2 2 2 2 2 2 2 2 2 2 2 2 2 2 4 5 5 6
4 3 4 4 4 3 3 3 2 2 2 2 2 2 2 2 2 2 2 2 2 2 2 2 2 3 2 2 2 2 2 3 3 2 2 2 2 3 2 2 2 2 3 5
4 3 4 3 3 3 2 2 2 2 2 2 2 2 2 2 3 3 2 2 2 2 3 2 3 3 2 2 2 2 2 2 2 2 2 3 3 3 3 3 3 3 2 2
3 3 3 3 3 3 2 2 3 3 3 3 3 3 3 2 2 2 2 2 2 3 3 3 3 3 3 2 2 2 2 4 3 2 2 2 2 3 3 3 3 3 3 2
3 4 4 4 4 4 4 3 3 3 3 3 3 3 2 2 2 2 2 2 2 3 3 3 3 2 2 2 2 2 2 2 3 2 2 2 2 3 3 3 3 3 3 3
5 5 5 4 4 4 4 3 3 3 3 3 2 2 2 2 3 3 3 2 2 3 2 2 2 2 2 2 2 2 2 2 2 2 2 2 2 2 2 3 3 3 3 3
4 4 3 3 3 2 2 3 3 2 2 2 2 3 3 3 3 3 2 2 2 3 3 2 3 2 2 3 3 2 2 2 2 2 2 3 3 2 2 2 2 3 3 2
3 2 2 2 1 1 2 2 2 2 2 1 2 2 2 3 2 2 2 3 3 3 2 2 2 2 2 2 3 2 2 2 2 2 2 2 2 2 2 2 2 2 2 2
2 2 1 1 1 1 1 1 1 2 2 1 2 2 3 3 2 2 2 3 3 2 1 2 2 2 2 2 2 2 2 2 2 2 2 2 2 2 1 1 2 2 2 2
2 1 1 1 1 2 2 1 1 2 1 1 1 1 2 2 3 2 3 2 2 3 2 1 2 3 3 3 1 1 1 1 2 1 1 2 2 2 2 2 2 2 2 2
1 1 1 1 1 1 2 1 1 1 1 2 2 2 2 2 2 2 2 2 1 3 2 2 3 4 4 2 1 1 1 1 2 2 2 2 2 2 2 2 2 2 2 2
1 1 1 1 1 1 2 2 2 1 1 2 2 2 2 2 2 1 1 2 4 4 2 3 4 4 4 2 1 1 1 2 2 2 2 2 1 1 1 1 1 1 2 2
1 1 1 1 1 1 1 1 1 1 1 1 1 2 1 1 1 1 1 1 3 3 2 3 4 4 3 2 1 2 2 2 2 2 1 1 1 1 1 1 1 1 1 2
1 1 1 1 1 1 1 1 1 1 1 1 2 1 1 1 1 1 1 1 2 3 2 1 2 2 2 2 2 2 2 2 2 2 2 2 1 1 1 1 1 1 1 2
1 1 1 1 1 1 1 1 1 1 1 1 2 1 1 1 1 1 1 1 1 1 1 1 1 1 2 2 2 2 2 2 2 2 2 1 1 1 1 2 1 1 1 1
Wind_Direction
266 274 264 257 248 237 232 231 235 257 262 270 283 295 306 314 336 2 9 12 9 359 351 355 359 357 0 14 16 32 79 94 100 103 104 123 121 119 116 128 143 139 137 138
273 259 256 263 256 244 240 242 252 268 272 278 304 306 301 297 297 339 1 353 343 341 347 348 349 353 354 359 357 13 72 87 90 101 102 116 125 122 123 134 143 136 144 160
263 297 319 266 240 229 231 231 232 247 260 290 298 295 290 285 273 304 318 317 321 325 320 325 325 327 324 332 347 16 51 59 68 90 99 106 135 134 153 161 146 145 162 173
261 321 246 244 211 204 232 252 246 255 273 283 281 297 312 308 280 298 311 323 323 325 325 326 331 338 341 344 345 4 325 221 218 149 140 149 158 167 182 163 160 168 179 188
219 250 266 266 246 191 228 273 269 265 284 298 307 318 308 15 29 323 306 307 308 305 305 314 322 317 308 283 278 274 258 231 215 192 191 181 181 191 194 181 179 188 179 195
221 238 248 265 207 129 108 276 280 274 286 307 337 298 280 323 340 323 324 346 326 314 313 311 308 307 278 262 250 266 269 266 244 213 211 203 208 219 215 204 201 189 210 218
227 241 259 269 145 89 192 256 313 296 288 293 269 252 276 307 315 318 327 342 337 316 306 299 304 297 269 282 271 267 272 282 278 241 222 209 207 217 213 203 200 196 212 227
206 227 251 199 136 189 235 291 315 320 307 296 288 289 294 306 315 332 337 344 345 328 314 308 300 281 258 265 266 249 232 255 262 251 241 224 200 221 225 202 205 212 216 231
205 223 248 184 209 238 274 287 291 300 304 309 304 301 303 303 306 318 324 327 332 319 310 311 306 284 256 271 267 229 222 242 254 260 248 228 217 222 225 215 211 221 217 227
249 257 262 252 267 272 275 280 290 293 297 304 295 297 301 301 301 303 303 303 309 303 298 304 304 292 266 273 266 227 238 255 254 249 244 240 236 230 224 223 219 220 223 229
251 269 285 267 255 260 274 286 297 304 297 287 282 286 286 287 286 286 291 290 281 276 280 287 295 292 286 274 266 243 245 252 253 245 240 234 229 229 227 230 223 223 226 224
235 237 235 261 271 268 266 274 279 285 293 296 283 275 282 276 273 272 273 273 276 279 280 281 289 293 297 288 262 240 245 250 248 239 245 233 223 253 254 241 247 249 249 247
241 262 255 271 283 284 270 273 277 275 273 283 288 279 280 280 284 285 280 276 275 277 280 280 283 284 290 291 276 254 240 247 247 245 249 245 234 232 247 261 246 248 251 256
245 252 262 261 267 282 286 289 291 294 291 281 283 290 286 282 287 283 278 277 278 280 279 273 274 279 282 277 273 267 253 253 251 242 241 242 241 241 236 236 250 259 257 254
259 249 246 261 268 276 281 290 293 293 296 299 296 288 278 270 271 275 281 289 290 283 279 275 276 283 293 285 274 264 257 250 247 242 242 242 242 243 242 240 243 252 258 257
261 266 257 256 258 264 269 268 267 276 283 283 284 283 277 268 272 281 279 266 259 265 272 272 272 277 287 285 278 269 263 260 255 244 241 241 241 240 240 237 238 240 243 243
235 252 254 261 260 261 261 260 258 265 272 274 276 282 286 289 287 282 280 281 272 266 266 265 271 284 286 282 277 272 266 259 258 252 243 243 242 241 239 233 233 238 243 243
235 244 244 248 254 260 263 263 263 269 270 272 283 284 271 263 262 270 277 291 298 291 276 267 269 280 281 284 285 276 265 256 249 240 243 246 252 248 243 238 232 235 243 246
251 253 254 249 245 245 257 257 261 266 270 266 264 267 267 267 270 274 279 277 273 277 278 268 283 286 278 285 292 272 269 263 257 250 247 252 259 251 246 244 243 239 240 240
275 273 265 263 251 238 255 266 261 266 268 260 266 279 285 284 283 279 272 265 261 261 263 274 279 274 275 273 289 276 271 265 260 257 252 246 246 250 252 252 249 247 245 239
287 285 272 282 305 297 270 264 250 258 268 250 243 257 271 281 279 270 266 280 289 280 271 281 289 281 281 279 286 275 267 268 267 260 255 254 254 254 252 255 259 259 253 249
306 304 292 285 292 303 307 300 267 258 265 270 271 266 271 277 280 280 268 259 272 295 303 281 287 293 299 299 285 276 275 276 277 270 262 255 250 250 250 250 254 260 258 253
312 310 298 284 274 287 312 312 296 271 258 260 254 252 256 263 261 264 288 292 279 299 311 287 301 308 313 321 308 292 285 280 277 275 270 263 257 252 251 251 254 256 255 255
329 327 323 326 332 319 310 314 319 307 282 277 267 258 255 272 289 278 264 290 309 319 319 305 315 319 327 332 313 297 287 283 278 273 269 266 263 262 258 258 262 260 255 253
331 327 331 331 311 294 305 328 333 326 323 317 307 295 283 266 263 291 314 303 309 329 328 316 324 331 341 333 324 311 303 294 289 283 270 267 264 262 265 261 260 257 253 250
323 311 302 296 288 297 309 309 309 312 325 327 326 322 326 334 316 301 307 305 306 323 330 322 320 327 331 326 317 312 309 311 314 312 298 286 278 273 272 271 268 264 265 263
341 337 346 347 339 321 309 300 293 294 295 294 308 314 324 332 332 334 330 327 331 333 329 327 327 330 331 328 321 317 314 312 311 309 304 298 291 283 280 276 275 271 267 260